[[{"header":{"parameterUnit":"m.s-1","parameterCategory":1,"la1":30.2991,"la2":30.254,"lo1":-89.0895,"lo2":-89.0444,"dy":0.0017,"dx":0.0017,"nx":28,"ny":28,"refTime":"2025-04-09T03:00:00:Z","depth":0,"parameterNumber":2,"parameterNumberName":"U-component_of_WINDS"},"data":[0,0,0,0,0,0,0,0,0,0,0,0,0,0,0,0,0,0,0,0,0,0,0,0,0,0,0,0,0,0,0,0,0,0,0,0,0,0,0,0,0,0,0,0,0,0,0,0,0,0,0,0,0,0,0,0,0,0,3.0578,3.058,0,3.0796,3.0799,3.0801,3.0805,3.0802,3.0799,3.0796,3.103,3.1039,3.1047,0,0,0,0,0,0,0,0,0,0,0,0,0,3.0174,3.0181,3.0577,3.058,3.0583,3.0796,3.0799,3.0802,3.0805,3.0802,3.0798,3.0795,3.1027,3.1038,3.1048,0,0,0,0,0,0,0,0,0,0,0,0,0,3.0366,3.0183,3.0577,3.061,3.0615,3.0795,3.0799,3.0803,3.0806,3.0802,3.0797,3.0793,3.1024,3.1037,3.105,3.1215,0,0,3.109,3.1096,0,0,0,0,0,0,0,0,3.0356,3.0381,3.0602,3.0608,3.0614,3.0769,3.0742,3.0941,3.0807,3.0734,3.0796,3.0791,3.0947,3.0966,3.1017,3.1225,3.1235,3.1091,3.1099,3.1105,3.1109,0,0,0,0,0,0,0,3.0342,3.0372,3.0664,3.0606,3.0613,3.0617,3.064,3.078,3.0861,3.074,3.074,3.0766,3.095,3.1004,3.1022,3.1239,3.1091,3.1103,3.1111,3.1116,3.1598,3.1602,0,0,0,0,0,0,3.0321,3.0361,3.0657,3.0671,3.0471,3.0628,3.0653,3.0723,3.086,3.0876,3.0769,3.0765,3.0984,3.1007,3.1031,3.1234,3.1105,3.1117,3.1125,3.1593,3.1599,3.1604,0,0,0,0,0,0,3.0312,3.0347,3.0648,3.0516,3.0555,3.0639,3.0718,3.073,3.0784,3.0882,3.0897,3.0809,3.0981,3.1012,3.1169,3.1243,3.1123,3.1135,3.1587,3.1595,3.1601,3.1642,0,0,0,0,0,0,3.03,3.0344,3.0405,3.0517,3.0562,3.078,3.0722,3.0737,3.0806,3.0803,3.0923,3.094,3.098,3.1149,3.1182,3.1259,3.1145,3.1581,3.159,3.1599,3.1635,3.165,3.1663,0,0,0,0,0,3.0286,3.0409,3.0408,3.0443,3.0639,3.0784,3.081,3.0851,3.0812,3.0875,3.0939,3.0936,3.1229,3.1165,3.1202,3.1284,3.1576,3.1588,3.1598,3.1628,3.1647,3.1663,0,0,0,0,0,0,3.0306,3.0424,3.0424,3.0586,3.0675,3.0784,3.0865,3.0869,3.0973,3.0966,3.1016,3.1044,3.12,3.1258,3.1185,3.1452,3.1399,3.1417,3.1409,3.1427,3.1441,3.1424,3.1156,0,0,0,0,0,3.0328,3.0433,3.0532,3.0666,3.071,3.078,3.0845,3.0869,3.0964,3.1002,3.1077,3.1172,3.1286,3.136,3.147,3.1643,3.1671,3.1718,3.1732,3.1743,3.176,3.1859,3.1881,3.164,3.164,3.164,0,0,3.0377,3.0455,3.0518,3.0672,3.0743,3.0854,3.0812,3.093,3.1014,3.1021,3.1173,3.1232,3.1342,3.1508,3.1585,3.1561,3.1833,3.1757,3.1765,3.1776,3.1872,3.1895,3.1915,3.1647,3.1646,3.1645,0,0,3.0523,3.0591,3.0711,3.0783,3.089,3.0937,3.0965,3.1075,3.1113,3.1266,3.1275,3.1377,3.1571,3.1649,3.1715,3.1893,3.1895,3.1928,3.2002,3.2098,3.2117,3.2134,3.22,3.2223,3.1943,3.1943,3.1943,0,3.0571,3.0734,3.0773,3.0891,3.096,3.097,3.1094,3.1163,3.1303,3.1352,3.1322,3.1567,3.1642,3.1828,3.1871,3.1923,3.1961,3.1914,3.2111,3.2128,3.2145,3.2208,3.2233,3.1947,3.1946,3.1946,3.1946,0,3.0789,3.0903,3.0988,3.1119,3.1197,3.1318,3.1379,3.1455,3.1473,3.1523,3.1681,3.1771,3.19,3.1946,3.1966,3.2137,3.2118,3.2099,3.2046,3.217,3.2231,3.2255,3.1951,3.195,3.1949,3.1948,0,0,3.0953,3.1104,3.1135,3.1195,3.1316,3.1406,3.153,3.1653,3.1718,3.1815,3.1922,3.2087,3.207,3.2144,3.2174,3.2258,3.2396,3.2229,3.2232,3.2258,3.2593,3.2607,3.2634,3.2398,3.2403,3.2407,3.2584,0,3.1112,3.1327,3.1366,3.1555,3.1663,3.1674,3.1782,3.187,3.1921,3.2023,3.2081,3.2198,3.2166,3.2211,3.2295,3.2361,3.2464,3.2349,3.2502,3.2506,3.2474,3.2665,3.268,3.2843,3.2608,3.2612,3.2614,0,3.1326,3.1426,3.1624,3.1732,3.1779,3.1874,3.1992,3.2088,3.219,3.2221,3.2305,3.2325,3.2458,3.2398,3.2584,3.2505,3.257,3.2613,3.262,3.2637,3.2568,3.2689,3.2896,3.2921,3.2652,3.2649,3.2646,0,3.1427,3.1611,3.1754,3.1806,3.1935,3.2002,3.206,3.2157,3.2229,3.2334,3.2382,3.2502,3.2568,3.2662,3.2716,3.2667,3.2899,3.2843,3.2932,3.2931,3.2981,3.2977,3.3203,3.3021,3.3021,3.302,3.302,0,3.1602,3.1723,3.1801,3.1889,3.2028,3.2074,3.2211,3.2268,3.2355,3.2457,3.2476,3.2573,3.2637,3.2745,3.2788,3.2937,3.2967,3.2999,3.3009,3.2998,3.2994,3.3042,3.3033,3.3027,3.3025,3.3024,3.3023,0,3.1738,3.1794,3.1951,3.206,3.2091,3.2188,3.2283,3.2372,3.2423,3.2553,3.2587,3.2669,3.2797,3.2859,3.3019,3.3048,3.3217,3.322,3.3182,3.3186,3.3272,3.3264,3.3537,3.3577,3.3367,3.3369,3.3371,0,3.1845,3.1939,3.2057,3.2126,3.2184,3.2295,3.2368,3.2419,3.2496,3.262,3.2694,3.2822,3.2927,3.3131,3.3207,3.333,3.3337,3.3425,3.3356,3.3342,3.3341,3.3335,3.3346,3.3437,3.3439,3.3441,3.3442,0,3.2031,3.2055,3.2158,3.2273,3.236,3.2454,3.2546,3.2602,3.2669,3.2755,3.2883,3.2965,3.3127,3.3255,3.3383,3.3447,3.3458,3.3463,3.3491,3.348,3.3455,3.3472,3.3217,3.3457,3.3455,3.3454,3.3453,3.3453,3.2158,3.2242,3.2339,3.2455,3.2529,3.2616,3.2704,3.2767,3.2874,3.3007,3.3032,3.317,3.3273,3.3446,3.3514,3.3626,3.3607,3.3646,3.3656,3.3666,3.3671,3.3436,3.3649,3.3649,3.3649,3.3648,3.3648,0,3.2346,3.2409,3.2515,3.2642,3.2735,3.2733,3.2836,3.2914,3.3034,3.3128,3.323,3.338,3.3505,3.3592,3.3719,3.3792,3.3801,3.3824,3.382,3.3836,3.3679,3.3643,3.3816,3.3816,3.3816,3.3816,3.3816,3.3815,3.2455,3.2598,3.2634,3.2816,3.288,3.3012,3.3071,3.3153,3.3228,3.3393,3.3496,3.355,3.3643,3.3778,3.3894,3.3917,3.3964,3.3988,3.4011,3.3864,3.3846,3.3829,3.3796,3.3998,3.3998,3.4159,3.416,3.4161]},{"header":{"parameterUnit":"m.s-1","parameterCategory":1,"la1":30.2991,"la2":30.254,"lo1":-89.0895,"lo2":-89.0444,"dy":0.0017,"dx":0.0017,"nx":28,"ny":28,"refTime":"2025-04-09T03:00:00:Z","depth":0,"parameterNumber":3,"parameterNumberName":"V-component_of_WINDS"},"data":[0,0,0,0,0,0,0,0,0,0,0,0,0,0,0,0,0,0,0,0,0,0,0,0,0,0,0,0,0,0,0,0,0,0,0,0,0,0,0,0,0,0,0,0,0,0,0,0,0,0,0,0,0,0,0,0,0,0,2.3685,2.3687,0,2.3911,2.3913,2.3916,2.3969,2.3967,2.3966,2.3964,2.4199,2.4207,2.4215,0,0,0,0,0,0,0,0,0,0,0,0,0,2.3302,2.3309,2.3684,2.3687,2.369,2.391,2.3914,2.3917,2.3969,2.3967,2.3965,2.3964,2.4197,2.4206,2.4215,0,0,0,0,0,0,0,0,0,0,0,0,0,2.3493,2.3311,2.3684,2.3743,2.375,2.391,2.3914,2.3918,2.397,2.3967,2.3965,2.3963,2.4194,2.4205,2.4217,2.4335,0,0,2.4252,2.4257,0,0,0,0,0,0,0,0,2.3482,2.3507,2.3731,2.3739,2.3748,2.3909,2.3865,2.4058,2.397,2.3886,2.3964,2.3962,2.4105,2.4124,2.4171,2.4346,2.4356,2.4253,2.426,2.4265,2.4268,0,0,0,0,0,0,0,2.3468,2.3497,2.3774,2.3734,2.3745,2.3759,2.3784,2.3902,2.4006,2.3893,2.3898,2.3924,2.4109,2.416,2.4177,2.4359,2.4253,2.4263,2.427,2.4275,2.4645,2.4648,0,0,0,0,0,0,2.3444,2.3486,2.3767,2.3781,2.3606,2.3768,2.3795,2.386,2.4005,2.4025,2.3925,2.3925,2.4142,2.4164,2.4186,2.4336,2.4265,2.4276,2.4282,2.4642,2.4646,2.4649,0,0,0,0,0,0,2.3436,2.3469,2.3758,2.3635,2.3673,2.3777,2.3849,2.3865,2.3917,2.4029,2.4048,2.3958,2.4141,2.417,2.4298,2.4345,2.4281,2.4291,2.4639,2.4643,2.4647,2.4635,0,0,0,0,0,0,2.3425,2.3466,2.351,2.3635,2.3679,2.3864,2.3852,2.3872,2.3936,2.3938,2.4065,2.4084,2.4141,2.428,2.4309,2.4359,2.43,2.4635,2.4641,2.4646,2.4632,2.4639,2.4644,0,0,0,0,0,2.3411,2.3498,2.3512,2.3546,2.3737,2.3867,2.3892,2.3955,2.3939,2.3986,2.4059,2.408,2.4334,2.4293,2.4326,2.438,2.4632,2.4639,2.4646,2.4629,2.4637,2.4644,0,0,0,0,0,0,2.3377,2.3515,2.3533,2.3663,2.3753,2.3876,2.3937,2.3961,2.4059,2.4056,2.4132,2.416,2.4284,2.4345,2.4296,2.4504,2.4483,2.4497,2.446,2.4468,2.4474,2.4458,2.431,0,0,0,0,0,2.3384,2.3477,2.3594,2.3697,2.3741,2.3831,2.389,2.3931,2.4028,2.4066,2.4148,2.4242,2.4344,2.4409,2.4509,2.4641,2.4671,2.4695,2.4701,2.4705,2.4717,2.4794,2.4806,2.467,2.467,2.467,0,0,2.3401,2.3488,2.3542,2.3693,2.3767,2.3863,2.3863,2.3964,2.4037,2.4082,2.4208,2.4272,2.4382,2.4513,2.4575,2.4568,2.4761,2.4714,2.4716,2.4726,2.4802,2.4814,2.4826,2.4675,2.4674,2.4673,0,0,2.3481,2.3555,2.365,2.3725,2.3838,2.3897,2.392,2.404,2.4084,2.4211,2.4248,2.4336,2.4509,2.4587,2.4649,2.476,2.4783,2.479,2.4823,2.4897,2.4908,2.4918,2.496,2.4973,2.4801,2.4801,2.4801,0,2.3488,2.3633,2.3696,2.3797,2.3863,2.3907,2.4006,2.4076,2.4215,2.4261,2.425,2.447,2.4547,2.4698,2.4725,2.4773,2.4803,2.4776,2.4901,2.4912,2.4922,2.4963,2.4978,2.4801,2.4801,2.4801,2.4801,0,2.3637,2.3737,2.3801,2.3934,2.4007,2.4106,2.4187,2.4253,2.4288,2.4349,2.448,2.4574,2.4695,2.4733,2.4768,2.4891,2.4883,2.4885,2.4867,2.4934,2.4974,2.499,2.4801,2.4801,2.4801,2.4801,0,0,2.3701,2.3869,2.3892,2.3954,2.4082,2.4162,2.4264,2.4381,2.4437,2.4533,2.4621,2.4767,2.4771,2.4842,2.4886,2.4951,2.5036,2.4946,2.495,2.4961,2.5179,2.5177,2.5194,2.5051,2.5054,2.5057,2.517,0,2.3798,2.398,2.4042,2.4193,2.4288,2.4333,2.4422,2.4511,2.4571,2.4662,2.4729,2.4832,2.4828,2.4871,2.4937,2.5011,2.508,2.5003,2.5137,2.5141,2.511,2.5214,2.5213,2.5315,2.5186,2.5189,2.5191,0,2.3936,2.4033,2.4193,2.4312,2.4354,2.4433,2.4546,2.4631,2.4735,2.4774,2.4853,2.4893,2.5003,2.4977,2.5131,2.5077,2.5136,2.518,2.5186,2.5202,2.5171,2.5236,2.5349,2.5365,2.5215,2.5213,2.5212,0,2.3969,2.414,2.4259,2.4311,2.4451,2.4506,2.4567,2.4667,2.4735,2.4834,2.4879,2.499,2.5051,2.5137,2.5207,2.5181,2.5356,2.5335,2.5394,2.5392,2.543,2.5427,2.5556,2.5464,2.5464,2.5463,2.5463,0,2.4072,2.4169,2.4276,2.435,2.4461,2.4531,2.464,2.4704,2.4793,2.4882,2.4927,2.5009,2.5095,2.5189,2.5244,2.5365,2.5392,2.5428,2.5442,2.5425,2.5421,2.5466,2.5461,2.5468,2.5467,2.5466,2.5465,0,2.4129,2.4204,2.4337,2.4459,2.4492,2.4569,2.4674,2.4749,2.481,2.4922,2.4952,2.505,2.5163,2.5241,2.5386,2.5423,2.5555,2.5566,2.552,2.5527,2.5582,2.5577,2.5747,2.5774,2.5661,2.5662,2.5663,0,2.419,2.4266,2.4396,2.4458,2.4519,2.4618,2.4687,2.476,2.483,2.4954,2.5014,2.513,2.5227,2.5406,2.5491,2.5603,2.5619,2.5671,2.5637,2.5618,2.5623,2.5618,2.5628,2.5677,2.5678,2.5678,2.5679,0,2.4292,2.4326,2.4422,2.4533,2.4614,2.4705,2.4796,2.4845,2.4934,2.5011,2.5127,2.5202,2.535,2.5466,2.5586,2.5651,2.5681,2.5689,2.5709,2.5694,2.5664,2.5683,2.5536,2.5685,2.5685,2.5684,2.5684,2.5684,2.4355,2.4425,2.4528,2.4635,2.4712,2.4796,2.4873,2.4944,2.5042,2.5168,2.5205,2.5327,2.543,2.5595,2.5662,2.5759,2.5755,2.5783,2.5791,2.5798,2.5799,2.5647,2.5781,2.5781,2.5781,2.5781,2.5781,0,2.4461,2.4529,2.4627,2.4754,2.4838,2.4858,2.496,2.5031,2.5137,2.523,2.5325,2.5459,2.5572,2.5666,2.5783,2.5843,2.586,2.5872,2.5869,2.5884,2.5794,2.5766,2.5856,2.5856,2.5856,2.5856,2.5856,2.5856,2.4526,2.4647,2.4693,2.4853,2.4922,2.5041,2.5098,2.5177,2.5253,2.5401,2.5494,2.5555,2.565,2.5774,2.5879,2.5905,2.5947,2.5956,2.5984,2.5899,2.589,2.5882,2.5856,2.5963,2.5964,2.6066,2.6067,2.6068]}]]